Hourly Data Report for October 03, 2020

SHEARWATER RCS
NOVA SCOTIA
Current Station Operator: ECCC - MSC

44°37'47.000" N
63°30'48.000" W
24.00 m
8205092
71264
AAW

Download Data

Hourly Data (October 2020)
Hourly Data Report for October 3, 2020
TIME Temp Definition
°C
Dew Point Definition
°C
Rel Hum Definition
%
Wind Dir Definition
10's deg

Wind Spd Definition
km/h
Visibility Definition
km
Stn Press Definition
kPa
Hmdx Definition


Wind Chill Definition


Weather Definition


00:00 14.7 14.0 95 19 5   100.85     LegendNANA
01:00 14.5 13.5 94 20 7   100.83     LegendNANA
02:00 14.4 13.4 94 20 7   100.88     LegendNANA
03:00 13.9 13.2 95 23 9   100.91     LegendNANA
04:00 14.5 13.5 94 24 10   100.96     LegendNANA
05:00 14.5 13.4 93 25 8   101.03     LegendNANA
06:00 13.7 12.7 94 26 6   101.09     LegendNANA
07:00 13.6 12.0 90 30 13   101.16     LegendNANA
08:00 12.6 10.5 87 30 14   101.27     LegendNANA
09:00 13.0 9.8 81 31 11   101.36     LegendNANA
10:00 14.3 9.6 73 31 12   101.40     LegendNANA
11:00 16.0 10.1 68 33 9   101.41     LegendNANA
12:00 17.0 9.3 61 35 9   101.41     LegendNANA
13:00 17.6 9.6 59 27 9   101.39     LegendNANA
14:00 18.3 9.9 58 28 8   101.43     LegendNANA
15:00 17.9 8.7 55 28 10   101.42     LegendNANA
16:00 16.9 8.7 59 32 14   101.50     LegendNANA
17:00 16.2 8.3 59 33 12   101.50     LegendNANA
18:00 14.3 8.3 67 33 8   101.55     LegendNANA
19:00 13.6 8.3 70 33 8   101.65     LegendNANA
20:00 12.5 8.5 77 33 8   101.73     LegendNANA
21:00 11.4 8.5 82 32 11   101.77     LegendNANA
22:00 10.7 8.4 86 32 6   101.83     LegendNANA
23:00 11.0 8.5 84 31 10   101.86     LegendNANA

Notes on Data Quality.

Legend

  • E = Estimated
  • M = Missing
  • NA = Not Available*
  • [empty] = Indicates an unobserved value
Date modified: